This is the latest recevied weather packets stored in our database for station/object K6CED. If no packets are shown the sender has not sent any weather packets the latest 10 day(s).
| Time | Temp. | Humidity | Pressure | Rain* | Wind** | Luminosity | Snow |
|---|---|---|---|---|---|---|---|
| 1777850727 | 18.89° C | 61% | 1014.3 hPa | 0 mm | - | 247 W/m² | - |
| 1777850424 | 19.44° C | 60% | 1014.6 hPa | 0 mm | - | 224 W/m² | - |
| 1777850122 | 19.44° C | 60% | 1014.6 hPa | 0 mm | - | 229 W/m² | - |
| 1777849819 | 19.44° C | 59% | 1014.7 hPa | 0 mm | - | 262 W/m² | - |
| 1777849515 | 20.56° C | 57% | 1014.8 hPa | 0 mm | - | 304 W/m² | - |
| 1777849212 | 20° C | 59% | 1014.6 hPa | 0 mm | - | 449 W/m² | - |
| 1777848909 | 20° C | 60% | 1014.8 hPa | 0 mm | - | 782 W/m² | - |
| 1777848603 | 18.89° C | 62% | 1014.6 hPa | 0 mm | - | 258 W/m² | - |
| 1777848301 | 18.89° C | 63% | 1015.1 hPa | 0 mm | - | 212 W/m² | - |
| 1777847999 | 20.56° C | 58% | 1014.7 hPa | 0 mm | - | 141 W/m² | - |
| 1777847697 | 20.56° C | 59% | 1015 hPa | 0 mm | - | 695 W/m² | - |
| 1777847392 | 20° C | 60% | 1015.2 hPa | 0 mm | - | 690 W/m² | - |
| 1777847091 | 20° C | 59% | 1015.2 hPa | 0 mm | - | 332 W/m² | - |
| 1777846788 | 19.44° C | 62% | 1014.8 hPa | 0 mm | - | 763 W/m² | - |
| 1777846487 | 19.44° C | 62% | 1015.3 hPa | 0 mm | - | 763 W/m² | - |
| 1777846183 | 19.44° C | 62% | 1015.1 hPa | 0 mm | - | 287 W/m² | - |
| 1777845879 | 18.89° C | 64% | 1015.4 hPa | 0 mm | - | 264 W/m² | - |
| 1777845577 | 18.33° C | 65% | 1015.4 hPa | 0 mm | - | 206 W/m² | - |
| 1777845273 | 18.89° C | 63% | 1015.3 hPa | 0 mm | - | 265 W/m² | - |
| 1777844971 | 18.33° C | 64% | 1015.4 hPa | 0 mm | - | 254 W/m² | - |
| 1777844669 | 18.89° C | 64% | 1015.5 hPa | 0 mm | - | 290 W/m² | - |
| 1777844366 | 18.89° C | 63% | 1015.3 hPa | 0 mm | - | 552 W/m² | - |
| 1777844064 | 18.33° C | 65% | 1015.6 hPa | 0 mm | - | 330 W/m² | - |
| 1777843760 | 18.33° C | 65% | 1015.6 hPa | 0 mm | - | 1073 W/m² | - |
| 1777843458 | 18.33° C | 66% | 1015.7 hPa | 0 mm | - | 268 W/m² | - |
* Rain latest hour (hover to see other rain measurements)
** Current wind speed in m/s (hover to see current wind gust speed)